Retour au catalogue

USA 257

ActifMilitaireGEO
NORAD 40208·PAYLOAD·🇺🇸 United States

Lancé Sep 17, 2014 depuis Cape Canaveral Space Force Station

Loading…

TLE

FraisSource: Mike McCants

Époque: Sep 14, 2026, 13:38 UTC

1 40208U 14055A   26257.56819454  .00000000  00000-0  00000-0 0    06
2 40208   5.7904  72.9314 0017493 323.3559  36.5273  1.00281279 22696

Suivez USA 257 en temps réel avec AllMySat

Download on the App Store